Miscellaneous Local Product
Issued by NWS North Platte, NE

Home | Current Version | Previous Version | Text Only | Print | Product List | Glossary On
Versions: 1 2 3 4 5 6 7 8 9 10 11 12 13 14 15 16 17 18 19 20 21 22 23 24 25 26 27 28 29 30 31 32 33 34 35 36 37 38 39 40 41 42 43 44 45 46 47 48 49 50
000
AXUS43 KLBF 271210
MISLBF


WESTERN AND NORTH CENTRAL NEBRASKA HOURLY WEATHER ROUNDUP
NATIONAL WEATHER SERVICE NORTH PLATTE NE
700 AM CDT MON APR 27 2015

***STATIONS NOT REPORTING VARIABLES SUCH AS SKY/WEATHER OR
PRESSURE ARE PROVIDED BY THE NEBRASKA DEPARTMENT OF
ROADS...RAWS...AND APRS NETWORKS...AND ARE NOT UNDER
NATIONAL WEATHER SERVICE QUALITY CONTROL***

...OBSERVATIONS IN AND NEAR THE EASTERN PANHANDLE OF NEBRASKA...

CITY           SKY/WX    TMP DP  RH WIND       PRES   REMARKS
PINE RIDGE     CLOUDY    37  35  92 CALM      30.20R
CHADRON        CLOUDY    43  40  89 SW5       30.21R
ALLIANCE       CLOUDY    43  39  86 NE3       30.19R
SIDNEY         CLOUDY    42  40  92 NE6       30.19R FOG
$$

...OBSERVATIONS IN NORTH CENTRAL NEBRASKA...

CITY           SKY/WX    TMP DP  RH WIND       PRES   REMARKS
VALENTINE      CLEAR     31  28  89 SW5       30.20R WCI  26
THEDFORD       CLEAR     34  34  98 W3        30.21R FOG
AINSWORTH      CLEAR     34  31  89 W5        30.20R WCI  30
O`NEILL        CLEAR     38  31  77 W7        30.19R WCI  32
ORD            CLEAR     34  31  88 CALM      30.19R FOG
BROKEN BOW     CLEAR     31  27  85 CALM      30.19R FOG
$$

...OBSERVATIONS IN SOUTHWEST NEBRASKA AND FAR NORTHEAST COLORADO...

CITY           SKY/WX    TMP DP  RH WIND       PRES   REMARKS
WRAY           CLOUDY    45  45 100 NE6       30.16S
HOLYOKE        CLOUDY    45  41  87 NE5       30.18R
IMPERIAL       CLOUDY    45  40  82 E7        30.17R
OGALLALA       CLOUDY    45  41  87 NE3       30.19R
MCCOOK         CLOUDY    39  34  82 N6        30.17R WCI  35
LEXINGTON      PTCLDY    32  31  96 NW6       30.19R FOG     WCI  27
$$

...NORTH PLATTE AREA...

CITY           SKY/WX    TMP DP  RH WIND       PRES   REMARKS
$$

...SOME WEATHER OBSERVATIONS FROM AROUND THE REGION...

CITY           SKY/WX    TMP DP  RH WIND       PRES   REMARKS
DENVER         LGT RAIN  38  38 100 NE8       30.16R VSB 1/2 WCI  32
LARAMIE        CLOUDY    35  32  88 CALM      30.15R
CHEYENNE       CLOUDY    34  32  92 NE3       30.17R
SCOTTSBLUFF    CLOUDY    44  50 100 N5        30.19R
RAPID CITY     CLOUDY    42  39  89 N20       30.20R
PIERRE         CLEAR     34  30  85 CALM      30.19R
WINNER         FAIR      43  29  57 SW6       30.20R
SIOUX FALLS    PTCLDY    34  27  75 NE5       30.20R WCI  30
OMAHA          MOCLDY    38  35  89 N7        30.18R WCI  33
GRAND ISLAND   CLEAR     34  31  88 N5        30.19R WCI  30
KANSAS CITY    CLOUDY    43  35  73 N3        30.12R
WICHITA        CLOUDY    51  37  58 NE15      29.99S
HAYS           CLOUDY    43  30  61 NE12      30.09R
LIBERAL        CLOUDY    45  41  87 NE20G26   29.97S
GOODLAND       CLOUDY    41  41 100 NE13      30.12S FOG
$$



USA.gov is the U.S. government's official web portal to all federal, state and local government web resources and services.